Regional Weather Roundup
Issued by NWS Sterling, VA

Home | Current Version | Previous Version | Text Only | Print | Product List | Glossary Off
Versions: 1 2 3 4 5 6 7 8 9 10 11 12 13 14 15 16 17 18 19 20 21 22 23 24 25 26 27

000
ASUS41 KLWX 202011
RWRLWX

REGIONAL WEATHER ROUNDUP
NATIONAL WEATHER SERVICE BALTIMORE MD/WASHINGTON DC
400 PM EDT WED SEP 20 2017

Note: "FAIR" indicates few or no clouds below 12,000 feet
with no significant weather and/or obstructions to visibility.
 TC=TEMPERATURE CELSIUS

 * =Non NWS site. Station does not report precipitation (e.g. rain,
    snow, etc.), thunder, or fog.

DCZ001-MDZ009-015-VAZ040>042-051-053>054-202100-
WASHINGTON METRO

CITY           SKY/WX    TMP DP  RH WIND       PRES   REMARKS
WASHINGTON NAT MOSUNNY   87  64  46 NW13      29.92F
DULLES         MOSUNNY   86  59  39 NW9       29.94F
ANDREWS AFB    SUNNY     86  58  38 NW12      29.91F
FT BELVOIR     SUNNY     88  57  35 NW9       29.92F
QUANTICO       SUNNY     88  59  37 N9        29.93F
COLLEGE PARK*  SUNNY     85  59  40 N6        29.92S
LEESBURG*      SUNNY     86  63  45 N12       29.95F
MANASSAS*      SUNNY     87  62  43 N9        29.93F
GAITHERSBURG*  SUNNY     85  61  44 NW6       29.95F

$$

MDZ006>007-011-014-202100-
BALTIMORE METRO

CITY           SKY/WX    TMP DP  RH WIND       PRES   REMARKS
BWI AIRPORT    MOSUNNY   87  63  44 NW10G18   29.90F
MD SCIENCE CTR   N/A     88  59  37 MISG      29.90F
MARTIN STATE   MOSUNNY   88  66  48 NW7       29.92S HX  90
ANNAPOLIS      SUNNY     87  66  49 NW6       29.90F
FORT MEADE*      N/A     84  64  51 NW6       29.94F

$$

MDZ012-015-019>023-202100-
MARYLAND EASTERN SHORE

CITY           SKY/WX    TMP DP  RH WIND       PRES   REMARKS
OCEAN CITY       N/A    N/A N/A N/A MISG      29.88S
SALISBURY      PTSUNNY   85  69  58 NW10G17   29.88F
CAMBRIDGE*     MOSUNNY   82  66  57 NW13      29.90F
EASTON*        PTSUNNY   82  66  57 N6        29.94F

$$

MDZ017>025-202100-
SOUTHERN MARYLAND

CITY           SKY/WX    TMP DP  RH WIND       PRES   REMARKS
PATUXENT RIVER MOSUNNY   87  65  47 NW10      29.90F
ST INIGOES     SUNNY     84  67  56 W8        29.90F
LEONARDTOWN*   SUNNY     84  63  48 NW6       29.93F

$$

MDZ003>005-202100-
NORTH CENTRAL MARYLAND

CITY           SKY/WX    TMP DP  RH WIND       PRES   REMARKS
FREDERICK*     SUNNY     90  55  31 NW8       29.97S
HAGERSTOWN APT SUNNY     87  56  34 NW8       29.96S
WESTMINSTER*   SUNNY     88  61  40 N7        29.96S

$$

MDZ501>502-202100-
WESTERN MARYLAND

CITY           SKY/WX    TMP DP  RH WIND       PRES   REMARKS
OAKLAND*       MOSUNNY   68  61  77 CALM      30.08S
CUMBERLAND*    SUNNY     88  55  33 W8        30.00F

$$

VAZ025>031-202100-
SHENANDOAH VALLEY

CITY           SKY/WX    TMP DP  RH WIND       PRES   REMARKS
WINCHESTER*    SUNNY     82  57  42 NW6       29.96F
FRONT ROYAL*   SUNNY     86  59  39 N8        29.95F
LURAY*         MOSUNNY   86  61  42 CALM      29.96S
NEW MARKET*    MOSUNNY   87  57  36 NE9       29.94F
STAUNTON*      CLOUDY    79  64  59 NW8       30.00S
WAYNESBORO*    CLOUDY    78  67  67 SW5       30.00F

$$

WVZ021-048>050-054>055-202100-
EASTERN WEST VIRGINIA PANHANDLE

CITY           SKY/WX    TMP DP  RH WIND       PRES   REMARKS
MARTINSBURG    SUNNY     87  54  32 N7        29.95F
PETERSBURG*    CLOUDY    84  67  57 E6        29.98S

$$

VAZ036>039-050-202100-
CENTRAL FOOTHILLS

CITY           SKY/WX    TMP DP  RH WIND       PRES   REMARKS
CHARLOTTESVILL SUNNY     89  61  38 CALM      29.94F
CULPEPER*      SUNNY     87  65  47 N7        29.94F
ORANGE*        SUNNY     84  63  48 CALM      29.93F
GORDONSVILLE*  SUNNY     86  65  49 CALM      29.93F
WARRENTON*     SUNNY     88  60  38 N8        29.94S

$$

VAZ055>057-202100-
NORTH AND CENTRAL PIEDMONT

CITY           SKY/WX    TMP DP  RH WIND       PRES   REMARKS
FREDERICKSBRG* SUNNY     88  62  42 NW8       29.91F
STAFFORD*      SUNNY     86  57  37 NW6       29.97F

$$

NCZ024-NYZ072-PAZ021-071-VAZ022-071-202100-
OTHER REGIONAL OBSERVATIONS

CITY           SKY/WX    TMP DP  RH WIND       PRES   REMARKS
NEW YORK CITY  CLOUDY    78  64  61 NE9       29.91R
PHILADELPHIA   MOSUNNY   86  62  44 N13       29.87F
PITTSBURGH     CLOUDY    80  63  55 NE6       30.01F
ROANOKE        PTSUNNY   79  64  60 W5        30.01F
RICHMOND       MOSUNNY   88  61  40 NW7       29.92F
RALEIGH        MOSUNNY   87  61  41 NW7       29.95F

$$

ANZ530>537-202100-
MARINE OBSERVATIONS

STATION/POSITION TIME  TEMP    WIND        PRES
                       AIR SEA DIR/SP/G
                 (UTC) (F)     (DEG/KT/KT) (MB)
THOMAS PT LIGHT  2000   80 75  130/  3/  3   N/A
BALT KEY BRIDGE  1948   84     310/ 11/ 12 1012.4F
COVE POINT       1948   78     360/  3/  5 1013.4F
LEWISETTA        1948   82 76  310/ 12/ 15 1012.8F
SOLOMONS ISLAND  1948   83 76  290/  7/ 10 1012.3F
PINEY POINT      1948          310/ 15/ 16   N/A

$$





USA.gov is the U.S. government's official web portal to all federal, state and local government web resources and services.